Dewpoint
40 40 40 42 43 42 46 44 47 47 50 50 49 47 45 45 47 49 45 46 44 44 38 38 35 34 35 37 41 34 36 36 40 38 39 33 28 27 23 23 22 22 27 28 26 31 21 20 19 17 27 29 28 28
39 39 39 41 42 42 44 44 44 44 50 49 48 47 46 47 48 48 45 44 43 41 39 40 39 40 38 37 39 37 37 32 40 42 37 33 31 29 25 23 26 24 27 28 26 26 29 28 27 29 29 30 29 30
38 39 40 41 42 43 44 45 44 45 49 48 47 46 47 48 48 48 46 48 44 41 39 39 38 40 41 41 42 42 38 35 34 39 39 37 29 28 28 23 26 27 27 31 27 27 26 28 29 29 29 30 30 30
39 40 41 42 42 43 43 44 44 47 48 47 46 46 47 48 47 47 47 46 45 45 40 38 39 38 40 42 41 40 39 40 39 39 43 42 36 30 27 27 25 26 27 26 26 27 27 27 28 29 28 29 27 26
39 40 40 41 43 42 43 44 44 48 48 47 46 47 48 47 47 46 46 46 46 44 40 38 38 37 39 42 39 40 40 39 40 44 43 38 32 31 30 29 26 27 27 26 25 29 28 28 28 27 27 26 26 26
40 40 40 42 42 41 43 44 47 47 46 46 47 48 47 46 46 46 37 47 43 42 45 38 37 36 38 39 39 39 38 39 41 42 37 33 33 35 34 25 28 28 30 30 29 29 28 28 27 26 26 25 25 23
40 40 41 43 42 41 43 45 47 46 46 47 48 47 47 47 47 43 41 43 43 44 44 36 34 36 36 36 36 38 38 39 39 39 37 33 32 35 34 24 27 29 29 30 30 29 27 25 25 24 24 22 23 21
40 41 42 42 42 43 43 46 46 46 47 47 47 47 47 45 44 42 40 43 45 40 40 37 34 35 36 37 37 34 40 40 37 35 34 32 31 34 30 27 28 28 29 28 27 27 27 24 23 22 21 21 21 22
40 41 42 42 43 43 44 46 47 47 47 47 46 46 45 43 41 41 42 43 43 41 40 38 33 34 34 34 36 37 39 37 35 37 34 32 29 29 25 27 28 28 27 25 24 23 22 22 22 22 22 21 18 11
40 41 41 42 42 43 46 46 46 46 46 46 45 40 34 39 43 44 42 42 42 41 42 36 34 34 34 33 35 36 37 31 32 30 31 32 23 27 28 28 28 27 25 25 25 24 24 23 22 19 14 12 13 13
41 41 41 42 43 46 45 45 45 46 45 42 38 36 39 43 43 40 36 35 34 31 34 33 33 30 33 32 32 32 32 29 28 26 28 25 23 28 29 29 28 27 26 25 25 24 23 22 18 14 14 15 15 14
41 42 41 43 45 45 45 45 45 45 43 42 40 40 40 38 36 32 32 29 29 26 32 32 31 32 33 34 31 30 26 27 20 27 30 23 28 29 29 27 26 26 25 23 22 19 16 13 14 14 15 15 15 16
41 41 45 45 45 45 45 45 44 41 38 37 37 35 35 32 32 27 26 25 29 31 32 30 33 33 32 33 33 30 31 27 27 30 22 26 28 28 27 25 23 21 20 17 15 15 16 17 17 16 16 17 17 17
43 45 45 45 44 44 45 43 40 38 37 36 33 31 33 28 26 24 25 27 30 32 32 33 34 35 33 30 29 27 26 27 25 23 21 29 27 27 25 22 19 18 18 17 16 15 16 16 16 20 25 24 23 20
44 45 44 44 44 44 43 41 41 40 38 31 31 29 27 29 30 31 31 31 32 33 32 33 31 32 31 31 27 26 25 23 22 24 30 30 27 24 22 20 19 21 24 18 17 24 26 24 22 25 26 23 22 26
44 45 44 43 43 42 41 40 39 39 36 31 30 28 30 30 32 34 33 34 33 33 33 32 28 26 24 25 24 24 20 21 28 31 31 29 25 24 20 20 19 17 17 16 18 21 24 25 27 29 28 28 26 27
43 42 43 43 41 41 41 38 36 34 32 29 30 31 31 30 33 32 32 33 32 33 33 27 29 21 26 22 20 25 28 29 30 30 27 24 22 20 22 18 17 17 16 18 19 22 27 27 26 27 26 28 28 27
41 42 41 40 38 38 35 35 32 28 27 27 29 29 29 31 32 31 31 31 32 28 27 26 28 23 25 18 22 27 28 29 28 26 25 23 23 21 15 15 16 17 19 25 24 28 27 26 22 22 23 22 24 24
41 40 40 40 38 36 33 32 30 26 27 25 25 26 27 28 29 29 30 29 30 30 31 27 24 21 23 27 28 27 27 25 25 26 24 22 19 17 16 18 18 18 21 24 22 23 24 22 23 24 23 19 19 20
38 38 37 38 38 35 30 29 30 25 22 23 22 22 22 24 26 29 28 27 26 27 26 25 25 27 28 28 28 27 27 25 24 24 23 21 22 18 18 18 20 19 22 22 24 25 24 24 24 21 18 18 20 22
34 34 35 35 33 33 29 27 27 25 22 22 22 20 21 22 23 25 24 25 26 24 24 25 26 28 29 29 28 26 24 24 23 21 19 22 20 18 19 20 21 22 21 23 24 25 25 25 24 20 22 24 23 23
30 34 29 31 29 29 27 25 26 27 26 23 21 20 23 25 24 22 22 24 22 23 25 26 26 25 25 24 24 23 23 20 19 18 21 20 20 20 21 22 21 25 24 25 22 26 25 23 20 19 22 24 20 20
32 31 29 27 28 26 23 24 22 25 25 20 19 16 17 20 17 19 23 21 23 24 25 25 24 24 22 21 20 19 20 16 18 19 18 19 20 22 23 25 24 26 24 24 24 25 25 17 18 21 21 20 20 21
29 25 23 23 22 24 22 21 17 18 18 16 14 13 15 18 18 23 21 23 22 21 22 22 22 23 22 20 21 20 20 19 20 21 22 23 23 25 25 25 24 24 24 24 24 25 23 24 17 18 20 19 19 18
24 18 22 17 19 20 18 18 16 16 16 14 14 15 18 19 20 20 22 23 22 24 24 23 24 22 23 22 21 22 24 21 21 24 27 25 27 26 26 26 26 25 25 27 26 26 24 22 20 19 16 17 15 15
16 19 18 17 19 18 17 16 18 17 16 16 17 17 18 18 16 20 22 24 26 25 30 30 27 23 19 20 19 18 22 26 25 25 28 27 27 29 29 27 25 25 24 26 27 24 19 18 17 15 15 15 13 13
15 17 16 15 14 14 18 17 14 18 16 15 17 16 15 12 14 18 20 22 22 25 25 25 24 23 22 22 24 25 25 26 26 27 27 27 27 28 30 28 25 25 23 22 22 20 18 16 15 14 15 15 15 13
16 17 15 17 16 15 17 15 16 15 16 15 15 13 12 15 17 21 22 24 26 23 22 22 21 21 22 25 27 27 26 25 25 25 24 23 23 25 24 24 22 18 20 19 19 17 16 15 14 14 14 13 12 11
19 18 17 15 18 18 18 17 17 16 14 16 19 17 19 20 22 23 22 24 26 25 24 24 27 29 27 27 28 28 28 29 28 24 23 25 25 25 24 23 22 20 20 19 8 10 12 13 13 14 11 12 11 9
18 18 17 15 14 15 17 17 20 22 21 22 21 19 19 21 23 25 26 27 27 31 33 32 31 32 29 29 28 27 30 31 30 30 26 24 26 26 23 22 21 18 18 18 16 13 7 12 11 12 10 9 9 6
17 20 18 16 16 17 19 23 24 25 26 25 26 22 20 21 24 26 26 28 29 31 31 29 29 31 29 28 29 28 27 29 27 26 28 28 25 24 23 21 20 18 18 16 14 13 10 10 11 8 7 5 2 -0
19 18 17 14 16 19 21 21 21 21 22 22 22 23 25 24 20 26 28 31 31 31 28 31 30 30 30 29 28 27 23 27 26 25 24 25 25 23 19 17 15 16 15 13 12 10 7 6 7 5 5 2 0 -3
20 19 19 17 17 16 17 20 14 15 17 16 16 16 17 19 18 26 27 29 31 31 27 28 28 27 25 25 27 27 25 25 22 22 20 20 18 17 18 17 16 14 11 12 11 9 3 2 3 1 0 -2 -3 -4
Lifted_Index
2 2 2 3 6 8 9 9 9 8 7 7 6 5 6 8 9 10 9 9 8 6 6 7 8 9 9 8 8 8 8 7 6 4 5 6 6 7 7 6 6 6 5 5 5 5 6 9 10 9 10 11 10 10
3 3 3 3 6 8 9 9 9 8 7 6 5 5 5 7 9 10 9 9 8 7 6 8 9 9 9 9 9 8 8 7 6 5 5 6 7 7 6 6 6 6 6 6 6 7 8 10 10 10 11 11 10 10
3 3 2 3 6 9 9 9 8 8 7 6 5 5 6 7 9 10 9 9 8 7 6 7 8 9 10 10 9 9 8 7 6 6 6 6 6 6 6 5 6 7 7 7 7 8 9 10 10 11 11 11 11 11
3 3 2 4 7 9 9 8 8 7 6 5 5 5 6 8 10 10 9 8 7 6 6 7 9 10 10 10 10 10 9 8 7 6 6 6 6 6 6 6 6 7 7 7 7 8 9 10 10 10 11 11 11 11
3 3 3 5 7 9 9 8 7 7 6 5 5 6 8 9 10 9 9 8 8 7 6 7 9 10 10 10 10 10 9 9 8 7 6 6 6 6 6 6 7 7 7 7 8 8 9 9 10 10 10 11 11 11
3 3 3 5 8 9 9 8 7 6 6 5 6 7 9 9 10 9 8 9 9 9 8 8 9 10 10 10 10 10 10 9 8 7 6 6 6 6 6 6 6 7 7 8 8 9 9 9 9 10 11 11 12 12
3 3 4 6 8 9 8 7 7 6 6 6 7 8 9 9 9 9 8 9 10 9 9 8 9 10 10 10 9 9 9 9 8 6 6 6 6 6 6 6 6 7 8 8 9 9 9 9 9 10 11 12 13 13
3 3 5 7 9 9 8 7 6 7 7 8 8 8 9 9 9 9 9 10 10 10 10 9 9 9 10 9 9 9 9 9 8 6 5 5 5 5 5 6 6 7 8 9 9 9 9 10 10 11 12 13 14 14
3 4 6 8 9 8 7 7 7 7 8 9 9 9 9 9 10 10 10 10 10 10 10 10 9 9 9 9 9 9 9 8 7 7 6 5 5 5 6 6 7 8 9 9 9 10 10 11 11 12 13 14 15 15
4 6 8 9 9 8 7 7 7 8 9 9 9 9 9 10 10 10 10 10 10 10 10 10 9 9 9 9 9 9 8 8 7 7 6 6 6 6 7 8 9 9 10 10 10 11 11 12 12 13 14 15 16 17
6 8 9 9 8 8 8 8 8 9 9 9 9 10 10 10 10 9 9 9 10 10 10 10 9 9 10 9 9 9 8 8 7 7 7 6 6 7 8 9 10 10 11 11 12 12 13 13 14 15 16 17 18 18
8 9 9 9 8 8 9 9 9 9 9 9 10 10 10 9 9 8 8 9 9 10 10 10 9 10 10 10 9 9 9 8 8 8 7 6 6 7 9 10 11 12 12 12 13 13 14 15 16 16 17 18 19 19
9 9 8 8 8 9 9 10 9 9 9 9 9 9 9 8 8 7 8 8 9 10 10 10 9 10 10 10 9 9 9 9 9 7 6 6 7 9 10 11 12 13 13 13 14 15 15 16 17 18 19 19 20 20
8 8 8 8 9 10 10 10 10 9 9 8 8 7 7 8 8 8 8 8 9 10 10 10 10 10 10 9 9 9 9 9 8 7 6 7 9 10 12 13 13 13 14 14 15 16 17 18 19 19 20 20 20 20
8 8 8 9 10 10 10 10 10 9 9 8 8 7 7 8 9 9 10 10 10 10 10 10 10 10 10 9 9 9 9 8 7 7 8 9 11 12 13 13 14 14 14 15 16 17 18 19 19 20 20 20 20 20
8 9 9 10 10 11 11 10 10 9 9 8 8 8 8 9 9 10 11 11 11 11 10 10 10 10 10 10 9 9 8 7 8 9 10 11 12 13 14 14 14 14 15 16 17 19 19 20 20 20 20 20 20 20
9 10 10 11 11 11 10 10 9 9 8 9 9 9 10 10 10 11 11 11 11 11 10 10 10 10 9 9 9 9 8 9 10 11 12 13 13 14 14 14 15 15 16 18 19 19 20 20 20 20 19 19 20 20
10 10 10 11 11 10 10 10 10 9 9 10 10 10 11 11 11 11 11 11 11 11 11 11 10 9 9 9 9 9 10 10 11 12 13 14 14 14 15 15 16 17 18 19 20 20 20 20 20 20 19 19 19 19
11 11 11 10 10 10 10 11 12 11 10 11 11 12 12 12 12 12 12 12 12 12 11 10 10 9 9 10 10 11 11 12 12 13 14 15 15 15 15 16 18 19 19 20 20 20 20 20 20 20 20 19 19 19
11 11 11 10 10 10 11 12 13 12 12 12 13 12 12 12 13 13 13 13 12 12 11 11 10 11 11 12 13 13 13 13 13 13 14 15 16 16 17 18 19 20 20 20 20 20 20 20 20 20 20 19 19 19
11 11 11 11 11 12 13 13 14 14 13 13 13 13 12 12 13 13 13 13 12 12 12 12 12 13 13 13 14 14 14 14 14 14 14 15 17 18 19 20 20 20 20 20 20 20 19 19 19 19 19 19 18 18
11 11 11 11 11 13 14 14 14 14 14 13 13 13 13 13 13 13 13 13 13 13 13 13 13 14 14 14 14 14 15 15 15 16 16 17 18 19 20 20 20 19 19 19 19 19 19 19 19 19 18 18 18 18
11 11 11 11 11 12 13 13 13 13 13 13 13 13 13 13 13 13 13 13 13 14 14 14 14 15 15 15 15 16 16 17 17 18 19 19 20 20 20 19 19 19 19 19 19 19 19 19 18 18 18 18 18 18
11 11 10 10 11 11 12 12 12 12 13 13 12 12 12 13 13 12 12 13 14 15 15 15 15 16 16 17 17 18 19 19 20 20 20 20 20 19 19 19 19 19 19 19 19 19 18 18 18 18 18 18 17 17
10 10 10 11 11 11 11 11 11 11 11 12 12 12 12 12 12 11 12 13 15 15 16 16 17 17 18 18 19 20 20 20 20 20 19 19 19 19 19 19 19 19 19 19 19 18 18 18 18 18 18 17 16 15
10 10 11 11 12 11 11 10 10 10 10 11 11 12 12 11 11 11 12 14 15 16 17 17 18 18 19 19 20 20 21 20 19 19 19 19 18 18 18 18 18 19 19 18 18 18 18 19 18 18 17 16 15 14
10 11 11 12 12 11 11 11 11 10 10 10 11 11 11 10 10 12 14 15 17 18 18 19 19 19 20 20 20 20 20 19 19 18 18 18 18 18 18 18 18 18 18 18 18 19 19 18 18 17 15 14 13 13
11 11 11 11 11 11 10 10 10 10 11 11 10 10 10 10 11 13 15 17 18 19 20 20 20 20 20 20 20 20 19 19 18 18 18 18 18 18 18 18 18 18 18 18 19 19 18 18 17 15 14 13 13 13
12 12 11 10 10 10 10 10 10 11 12 11 11 10 11 12 14 15 17 18 19 19 20 20 20 20 20 19 19 19 18 18 18 17 17 17 17 18 18 18 18 18 18 18 18 18 17 16 15 14 13 13 12 12
13 13 12 10 10 10 11 12 12 13 13 13 12 11 12 14 16 17 18 19 19 19 19 19 19 19 19 19 18 18 18 17 17 17 17 17 17 17 17 17 18 18 18 18 17 17 16 15 14 13 12 12 12 12
13 13 11 10 11 12 14 14 14 14 14 13 13 13 13 15 17 18 19 19 19 19 19 19 19 19 18 18 18 17 17 17 17 17 17 17 17 17 17 18 18 18 17 17 16 14 14 13 12 12 12 11 11 11
13 12 11 11 12 14 15 15 15 14 14 14 14 15 15 16 17 18 19 19 19 19 19 18 18 18 18 17 17 17 17 17 17 17 17 17 17 17 17 18 18 17 16 15 14 13 12 12 12 11 11 11 11 12
13 12 11 11 12 14 15 15 14 14 15 15 15 16 17 16 17 18 18 18 18 19 18 18 18 17 17 17 17 17 17 17 17 17 17 17 17 17 18 18 17 16 15 14 13 12 12 12 11 11 11 12 12 12